This demonstration page uses our WeatherBlox Daily Observations layout. Learn more.

Left ArrowRight Arrow

Hourly Observations for May 22, 2020

Temp ( °F °C ) Dew Point ( °F °C ) Humidity (%) Winds ( mph kmh ) Pressure ( in mb ) Visibility ( mi km ) Precip ( " mm )
12:51 am 00:51 Clear 60 15.6 8 -13.3 12 12 S 7 11 29.79 1009 10 16.0934 0 0
1:51 am 01:51 Clear 54 12.2 8 -13.3 16 16 ESE 6 9 29.79 1009 10 16.0934 0 0
2:51 am 02:51 Clear 53 11.7 8 -13.3 16 16 E 5 7 29.79 1009 10 16.0934 0 0
3:51 am 03:51 Clear 51 10.6 7 -13.9 17 17 SSE 3 6 29.8 1009 10 16.0934 0 0
4:51 am 04:51 Clear 51 10.6 8 -13.3 17 17 SE 3 6 29.8 1009 10 16.0934 0 0
5:51 am 05:51 Sunny 51 10.6 8 -13.3 17 17 Calm 29.82 1010 10 16.0934 0 0
6:51 am 06:51 Sunny 59 15 12 -11.1 15 15 Calm 29.83 1010 10 16.0934 0 0
7:51 am 07:51 Sunny 67 19.4 17 -8.3 15 15 Calm 29.84 1011 10 16.0934 0 0
8:51 am 08:51 Sunny 75 23.9 14 -10 10 10 SE 5 7 29.83 1010 10 16.0934 0 0
9:51 am 09:51 Sunny 78 25.6 15 -9.4 9 9 VRB 3 6 29.8 1009 10 16.0934 0 0
10:51 am 10:51 Sunny 84 28.9 15 -9.4 7 7 NNE 8 13 29.78 1009 10 16.0934 0 0
11:51 am 11:51 Sunny 86 30 15 -9.4 7 7 S 7 11 29.77 1008 10 16.0934 0 0
12:51 pm 12:51 Sunny 87 30.6 15 -9.4 7 7 VRB 3 6 29.75 1007 10 16.0934 0 0
1:51 pm 13:51 Sunny 89 31.7 15 -9.4 6 6 SSW 6 9 29.73 1007 10 16.0934 0 0
2:51 pm 14:51 Sunny 91 32.8 15 -9.4 6 6 W 8 13 29.69 1006 10 16.0934 0 0
3:51 pm 15:51 Sunny 93 33.9 15 -9.4 6 6 W 12 19 29.66 1004 10 16.0934 0 0
4:51 pm 16:51 Sunny 92 33.3 15 -9.4 6 6 undefined N/A 29.64 1004 10 16.0934 0 0
5:51 pm 17:51 Sunny 91 32.8 15 -9.4 6 6 WNW 14 22 29.63 1003 10 16.0934 0 0
6:51 pm 18:51 Sunny 87 30.6 17 -8.3 7 7 W 16 26 29.64 1004 10 16.0934 0 0
7:51 pm 19:51 Clear 84 28.9 18 -7.8 8 8 W 15 24 29.64 1004 10 16.0934 0 0
8:51 pm 20:51 Clear 77 25 18 -7.8 11 11 NW 9 15 29.66 1004 10 16.0934 0 0
9:51 pm 21:51 Clear 78 25.6 19 -7.2 11 11 NNW 12 19 29.68 1005 10 16.0934 0 0
10:51 pm 22:51 Clear 76 24.4 20 -6.7 12 12 NW 13 20 29.68 1005 10 16.0934 0 0
11:51 pm 23:51 Clear 75 23.9 20 -6.7 12 12 WNW 13 20 29.68 1005 10 16.0934 0 0

Powered by AerisWeather